IW1EYZ-3 Weather Reports


Display with metric or nautical units.
time (UTC)temp
F
wind
direction
speed
MPH
gust
MPH
rain 1hr
in
rain 24hr
in
rain mn
in
humidity
%
barometer
mb
20260507163446 69 0.0 0.0 0.00 0.00 0.00 51 1015.0
20260507161446 78 0.0 0.0 0.00 0.00 0.00 40 1014.9
20260507155445 79 0.0 0.0 0.00 0.00 0.00 39 1014.9
20260507153445 82 0.0 0.0 0.00 0.00 0.00 35 1015.0
20260507151445 80 0.0 0.0 0.00 0.00 0.00 38 1015.1
20260507145445 84 0.0 0.0 0.00 0.00 0.00 33 1014.8
20260507143444 83 0.0 0.0 0.00 0.00 0.00 33 1015.1
20260507141444 80 0.0 0.0 0.00 0.00 0.00 37 1015.3
20260507135502 79 0.0 0.0 0.00 0.00 0.00 39 1015.4
20260507133443 80 0.0 0.0 0.00 0.00 0.00 39 1015.3
20260507131443 67 0.0 0.0 0.00 0.00 0.00 58 1015.5
20260507125442 73 0.0 0.0 0.00 0.00 0.00 48 1015.5
20260507123442 78 0.0 0.0 0.00 0.00 0.00 41 1015.3
20260507121442 81 0.0 0.0 0.00 0.00 0.00 37 1015.1
20260507115441 79 0.0 0.0 0.00 0.00 0.00 40 1015.2
20260507113441 79 0.0 0.0 0.00 0.00 0.00 41 1015.4
20260507111441 72 0.0 0.0 0.00 0.00 0.00 48 1015.6
20260507105440 70 0.0 0.0 0.00 0.00 0.00 52 1015.4
20260507103440 70 0.0 0.0 0.00 0.00 0.00 54 1015.5
20260507101439 75 0.0 0.0 0.00 0.00 0.00 46 1015.4
20260507095439 66 0.0 0.0 0.00 0.00 0.00 63 1015.5
20260507093439 65 0.0 0.0 0.00 0.00 0.00 64 1015.4
20260507091438 72 0.0 0.0 0.00 0.00 0.00 51 1015.4
20260507085438 66 0.0 0.0 0.00 0.00 0.00 58 1015.3
20260507083438 65 0.0 0.0 0.00 0.00 0.00 61 1015.0
20260507081438 65 0.0 0.0 0.00 0.00 0.00 63 1014.9
20260507075437 64 0.0 0.0 0.00 0.00 0.00 61 1014.8
20260507073437 63 0.0 0.0 0.00 0.00 0.00 60 1014.5
20260507071436 66 0.0 0.0 0.00 0.00 0.00 55 1014.4
20260507065436 63 0.0 0.0 0.00 0.00 0.00 59 1014.3
20260507063436 63 0.0 0.0 0.00 0.00 0.00 59 1014.3
20260507061436 63 0.0 0.0 0.00 0.00 0.00 58 1014.1
20260507055435 63 0.0 0.0 0.00 0.00 0.00 60 1014.0
20260507053435 63 0.0 0.0 0.00 0.00 0.00 61 1014.0
20260507051435 62 0.0 0.0 0.00 0.00 0.00 63 1013.8
20260507045434 61 0.0 0.0 0.00 0.00 0.00 65 1013.4
20260507043434 60 0.0 0.0 0.00 0.00 0.00 66 1013.5
20260507041434 61 0.0 0.0 0.00 0.00 0.00 66 1013.2
20260507035433 61 0.0 0.0 0.00 0.00 0.00 66 1013.2
20260507033433 61 0.0 0.0 0.00 0.00 0.00 66 1013.2
20260507031433 61 0.0 0.0 0.00 0.00 0.00 65 1013.2
20260507025432 61 0.0 0.0 0.00 0.00 0.00 64 1013.2
20260507023432 62 0.0 0.0 0.00 0.00 0.00 64 1013.1
20260507021432 62 0.0 0.0 0.00 0.00 0.00 64 1013.1
20260507015431 62 0.0 0.0 0.00 0.00 0.00 64 1013.1
20260507013431 62 0.0 0.0 0.00 0.00 0.00 65 1013.1
20260507011431 62 0.0 0.0 0.00 0.00 0.00 64 1013.3
20260507005430 62 0.0 0.0 0.00 0.00 0.00 64 1013.4
20260507003430 62 0.0 0.0 0.00 0.00 0.00 65 1013.4
20260507001430 62 0.0 0.0 0.00 0.00 0.00 65 1013.3
20260506235429 62 0.0 0.0 0.00 0.00 0.00 64 1013.4
20260506233429 62 0.0 0.0 0.00 0.00 0.00 64 1013.5
20260506231429 63 0.0 0.0 0.00 0.00 0.00 61 1013.6
20260506225428 63 0.0 0.0 0.00 0.00 0.00 60 1013.5
20260506223428 63 0.0 0.0 0.00 0.00 0.00 60 1013.4
20260506221428 62 0.0 0.0 0.00 0.00 0.00 63 1013.5
20260506215427 63 0.0 0.0 0.00 0.00 0.00 61 1013.4
20260506213427 63 0.0 0.0 0.00 0.00 0.00 62 1013.5
20260506211427 63 0.0 0.0 0.00 0.00 0.00 61 1013.4
20260506205426 62 0.0 0.0 0.00 0.00 0.00 62 1013.5
20260506203426 63 0.0 0.0 0.00 0.00 0.00 62 1013.3
20260506201426 63 0.0 0.0 0.00 0.00 0.00 62 1013.3
20260506195425 63 0.0 0.0 0.00 0.00 0.00 63 1013.0
20260506193425 63 0.0 0.0 0.00 0.00 0.00 63 1012.7
20260506191425 62 0.0 0.0 0.00 0.00 0.00 62 1012.5
20260506185424 63 0.0 0.0 0.00 0.00 0.00 63 1012.1
20260506183424 63 0.0 0.0 0.00 0.00 0.00 67 1012.0
20260506181424 63 0.0 0.0 0.00 0.00 0.00 68 1011.8
20260506175423 63 0.0 0.0 0.00 0.00 0.00 66 1011.5
20260506173423 63 0.0 0.0 0.00 0.00 0.00 66 1011.5
20260506171423 64 0.0 0.0 0.00 0.00 0.00 63 1011.4
20260506165423 65 0.0 0.0 0.00 0.00 0.00 59 1011.4